{"data":{"norad_id":62479,"epoch":"2026-05-25T03:30:57.766752Z","epoch_age_seconds":62117,"freshness":"FRESH","line1":"1 62479U 24254T   26145.14650193  .00017281  00000+0  63596-3 0  9992","line2":"2 62479  43.0021 297.0066 0001840 269.2699  90.7942 15.27582596 79272","mean_motion":15.27582596,"eccentricity":0.000184,"inclination_deg":43.0021,"raan_deg":297.0066,"arg_perigee_deg":269.2699,"mean_anomaly_deg":90.7942,"bstar":0.00063596,"rev_number":7927,"period_min":94.266588515126,"perigee_km":481.77886588138,"apogee_km":484.30377950413,"semimajor_km":6861.1783226928,"source":"CELESTRAK","updated_at":"2026-05-25T13:38:19.695049Z"}}